Temp
51 45 41 44 45 46 45 44 44 48 56 53 50 50 55 60 57 56 57 59 60 60 65 66 67 68 68 65 66 65 64 64 65 63 61 61 63 64 63 64 65 65 65 64
45 41 49 51 49 47 45 42 43 49 53 51 49 51 57 56 58 59 58 58 60 61 61 65 64 66 67 64 65 65 65 64 65 67 66 62 63 63 66 63 64 65 65 64
44 47 52 49 47 45 44 42 44 45 47 47 45 45 49 54 57 60 61 62 64 63 63 63 64 64 66 65 65 65 65 65 66 67 66 63 61 60 60 60 63 64 65 64
47 51 49 46 45 47 40 48 49 46 42 36 46 37 47 52 56 59 62 61 64 64 64 63 65 64 65 66 67 68 66 65 66 66 65 64 63 62 65 65 66 63 64 64
43 47 45 43 46 50 43 51 48 45 40 41 42 38 41 51 49 54 60 64 65 64 64 65 64 66 67 67 67 68 67 66 66 66 66 64 64 64 64 64 62 64 64 64
46 52 52 49 52 53 49 45 43 42 41 34 42 40 39 45 50 56 61 62 63 65 65 65 65 66 66 68 67 66 66 66 66 66 66 64 64 63 62 62 62 63 65 64
43 44 49 52 47 47 47 42 33 32 32 31 42 36 44 51 54 56 57 57 58 59 61 65 63 60 64 65 65 66 66 66 67 66 66 66 65 64 63 64 64 63 63 63
35 33 44 49 48 42 45 45 33 27 27 33 36 33 41 54 60 61 57 56 57 57 59 59 63 63 64 64 65 65 65 66 67 67 66 66 66 66 66 66 66 65 64 64
34 35 47 48 50 50 40 40 48 34 21 27 32 38 48 51 53 53 53 54 55 56 58 59 58 58 61 63 63 65 65 66 67 67 67 66 66 66 66 67 66 66 66 65
40 34 42 46 50 48 47 51 38 36 21 21 30 33 39 45 50 53 52 51 53 54 55 57 57 58 58 58 60 62 65 65 66 67 67 67 66 66 67 67 65 66 65 64
48 41 35 40 40 40 39 42 42 44 34 28 25 32 46 51 50 51 53 53 51 51 52 53 54 54 55 55 55 57 59 63 62 63 66 65 65 65 65 66 64 64 62 62
46 41 33 36 40 43 46 44 45 37 32 33 31 34 49 52 51 51 52 53 52 52 52 52 52 52 52 53 53 54 53 54 57 58 61 61 63 63 63 63 65 63 61 62
43 34 31 31 36 40 42 43 48 43 38 34 29 33 50 46 48 50 51 52 54 53 52 53 51 51 50 51 51 52 52 52 53 54 55 56 58 60 62 63 64 62 62 62
46 36 33 32 37 40 39 42 46 46 35 37 39 40 45 48 49 50 51 53 52 53 55 53 51 51 51 51 51 51 51 51 51 51 51 51 52 55 57 58 56 55 55 54
46 33 36 39 42 42 41 42 42 42 45 39 44 41 47 50 50 51 52 52 53 54 54 54 53 51 51 50 50 50 49 50 50 49 48 49 49 51 52 52 52 51 50 51
45 33 39 35 40 42 39 43 44 44 46 46 47 44 50 53 51 50 52 53 53 54 55 56 55 53 53 52 52 51 49 48 48 47 47 47 46 45 45 45 44 44 44 44
40 35 34 32 36 38 32 39 41 43 47 47 41 49 49 49 51 51 52 54 53 53 54 54 53 53 51 50 50 49 48 47 46 45 42 41 40 41 40 40 40 40 40 39
34 37 32 29 33 27 37 47 48 45 47 50 50 49 53 51 52 53 53 50 51 52 51 50 48 48 48 47 47 48 46 44 42 40 39 38 38 37 36 38 38 37 37 37
43 37 30 29 31 33 36 40 43 41 43 52 50 52 49 50 48 47 49 49 47 46 45 45 45 45 44 43 43 41 38 38 38 38 38 37 36 31 35 34 36 36 36 34
44 44 36 29 28 27 36 43 50 49 36 53 53 52 51 49 42 47 46 44 42 42 41 42 42 41 40 39 39 37 36 36 37 37 37 36 34 31 35 35 33 32 32 32
31 32 32 31 23 29 38 41 52 34 39 45 53 52 51 49 53 45 42 40 39 38 38 39 38 36 35 35 35 34 33 33 33 32 32 30 29 33 34 33 31 32 32 31
32 30 29 26 19 27 39 45 41 44 39 39 42 46 47 42 41 40 38 36 36 35 35 36 34 33 32 31 33 32 31 31 27 27 27 25 30 32 33 33 32 32 32 32
32 36 32 34 31 40 39 40 42 42 42 39 40 40 44 40 37 37 35 33 32 31 31 31 30 29 28 28 29 28 28 28 26 25 23 29 26 33 33 33 32 31 32 31
34 33 34 33 32 33 37 39 43 42 40 38 39 40 41 37 36 34 33 31 29 28 27 26 26 25 24 24 25 26 26 28 29 22 23 22 22 22 26 31 31 32 31 30
26 30 29 27 29 32 37 39 39 38 38 36 35 36 36 36 33 33 30 28 27 26 25 24 23 22 21 21 20 19 22 22 24 22 22 22 21 19 20 23 28 29 29 31
18 16 22 25 24 25 33 31 37 36 34 33 33 32 32 33 30 29 26 26 25 23 22 21 19 19 16 15 16 16 18 20 21 23 22 21 20 19 19 18 19 32 34 36
MSLP
1018.82 1019.12 1018.85 1019.14 1019.35 1019.61 1019.42 1019.38 1019.08 1018.23 1017.63 1017.68 1017.71 1017.22 1016.87 1016.45 1016.93 1017.11 1017.05 1016.83 1016.93 1017.07 1016.83 1016.97 1017.13 1017.54 1018.27 1018.85 1019.02 1019.56 1020.32 1020.71 1020.93 1021.46 1021.96 1022.20 1022.17 1022.40 1022.63 1022.68 1022.85 1023.29 1023.60 1023.86
1019.16 1018.14 1018.77 1019.52 1019.59 1019.61 1019.62 1019.60 1018.95 1018.18 1017.68 1017.72 1017.78 1017.20 1016.72 1016.50 1016.32 1016.33 1016.31 1016.30 1016.18 1015.93 1016.24 1016.43 1016.54 1016.83 1017.25 1017.85 1018.42 1018.90 1019.35 1019.82 1020.30 1020.50 1020.95 1021.61 1021.99 1022.14 1022.04 1022.43 1022.69 1022.82 1023.05 1023.36
1017.72 1017.44 1018.77 1019.23 1019.38 1019.57 1019.43 1019.27 1018.97 1018.64 1018.22 1018.17 1018.05 1017.40 1016.71 1016.11 1015.64 1015.41 1015.16 1014.98 1014.96 1015.11 1015.22 1015.46 1015.84 1015.99 1016.30 1016.83 1017.47 1017.82 1018.33 1018.94 1019.57 1020.29 1020.53 1021.01 1021.43 1021.89 1022.23 1022.29 1022.38 1022.31 1022.56 1022.89
1017.53 1017.68 1017.97 1018.59 1018.61 1018.90 1018.89 1018.82 1018.97 1018.79 1018.99 1018.84 1018.25 1017.14 1015.96 1015.59 1015.11 1014.60 1014.34 1014.19 1013.82 1013.96 1014.10 1014.42 1014.56 1014.92 1015.24 1015.56 1016.09 1016.63 1017.34 1018.10 1018.64 1019.43 1019.94 1020.07 1020.21 1020.54 1020.56 1021.11 1021.59 1021.79 1021.98 1022.28
1016.65 1016.42 1017.20 1017.61 1016.92 1018.28 1018.46 1018.53 1019.09 1019.21 1019.47 1019.27 1018.93 1018.44 1015.82 1015.29 1014.68 1013.94 1013.27 1012.73 1012.66 1012.73 1012.94 1013.14 1013.42 1013.45 1013.83 1014.83 1015.22 1015.74 1016.43 1017.39 1017.95 1018.32 1018.89 1019.39 1019.72 1019.79 1020.20 1020.70 1021.00 1021.36 1021.57 1021.63
1016.30 1016.37 1016.32 1016.11 1017.11 1017.75 1018.19 1019.04 1019.67 1020.14 1020.16 1019.52 1018.40 1018.37 1015.52 1014.78 1013.94 1013.10 1012.27 1011.93 1011.81 1011.95 1011.95 1012.06 1012.23 1012.65 1013.10 1013.72 1014.51 1015.10 1015.54 1015.94 1016.84 1017.48 1017.76 1018.18 1018.62 1019.10 1019.46 1019.74 1020.16 1020.39 1020.48 1020.77
1016.25 1016.16 1016.23 1016.09 1016.73 1017.35 1017.67 1018.58 1019.74 1020.44 1020.07 1018.31 1017.69 1018.04 1014.92 1013.64 1012.85 1012.21 1011.86 1011.70 1011.57 1011.64 1011.45 1011.46 1011.64 1012.11 1012.47 1013.05 1013.60 1014.26 1014.86 1015.17 1015.82 1016.55 1016.90 1017.15 1017.58 1018.26 1018.51 1018.71 1018.98 1019.45 1019.87 1019.93
1015.64 1015.87 1015.64 1015.86 1014.89 1014.97 1015.74 1016.49 1017.64 1018.37 1018.71 1018.12 1017.88 1015.79 1013.38 1012.22 1011.19 1011.11 1011.28 1011.30 1011.23 1011.25 1011.06 1011.04 1011.06 1011.13 1011.59 1012.14 1012.67 1013.33 1014.03 1014.43 1014.95 1015.60 1015.76 1016.41 1016.85 1017.26 1017.53 1017.86 1018.16 1018.43 1018.53 1018.59
1015.18 1014.83 1014.34 1015.02 1014.41 1014.45 1015.50 1015.77 1015.78 1017.45 1018.81 1018.43 1016.92 1014.81 1013.27 1011.86 1011.39 1010.98 1011.05 1011.08 1010.99 1011.03 1010.95 1010.90 1010.87 1010.92 1011.14 1011.58 1012.02 1012.59 1013.17 1013.65 1014.28 1014.67 1015.23 1015.62 1016.05 1016.38 1016.35 1016.56 1017.13 1017.34 1017.52 1017.74
1014.72 1015.12 1014.72 1014.60 1014.75 1014.67 1014.02 1014.28 1015.95 1016.78 1018.14 1018.10 1016.21 1014.66 1012.43 1011.70 1010.91 1010.91 1011.01 1010.97 1010.91 1011.03 1011.07 1010.86 1010.89 1011.01 1011.12 1011.35 1011.52 1011.90 1012.22 1012.53 1012.81 1013.21 1013.76 1014.11 1014.52 1015.06 1015.42 1015.93 1016.11 1016.28 1016.54 1016.92
1014.04 1014.90 1015.44 1015.30 1013.77 1013.45 1014.23 1014.19 1014.61 1015.44 1016.62 1016.45 1015.84 1013.23 1011.15 1010.52 1010.51 1010.69 1010.99 1011.00 1011.03 1011.28 1011.43 1011.34 1011.27 1011.32 1011.58 1011.60 1011.73 1011.76 1012.01 1012.23 1012.53 1012.79 1013.06 1013.44 1013.75 1014.24 1014.69 1015.08 1015.39 1015.63 1016.05 1016.32
1013.87 1013.81 1014.55 1014.57 1014.43 1013.45 1012.74 1012.80 1013.02 1014.08 1015.36 1015.54 1015.05 1012.51 1010.57 1010.02 1010.28 1010.37 1010.79 1011.09 1011.13 1011.25 1011.43 1011.70 1011.67 1011.56 1011.66 1011.83 1012.00 1012.18 1012.29 1012.58 1012.51 1012.59 1012.72 1012.95 1013.09 1013.42 1013.76 1014.06 1014.25 1014.60 1014.87 1015.10
1013.14 1014.07 1013.65 1014.80 1014.48 1013.66 1013.01 1012.48 1012.41 1012.70 1013.53 1014.15 1014.38 1012.32 1010.97 1010.70 1010.73 1010.79 1010.76 1011.04 1011.14 1011.35 1011.35 1011.58 1011.80 1012.04 1012.14 1012.25 1012.44 1012.44 1012.39 1012.46 1012.55 1012.58 1012.64 1012.68 1012.63 1012.54 1012.47 1012.51 1012.81 1013.36 1013.71 1014.17
1012.49 1012.43 1012.29 1012.41 1011.71 1011.63 1011.24 1010.73 1010.87 1011.25 1012.02 1012.30 1011.89 1011.72 1011.08 1011.06 1010.94 1010.88 1011.02 1010.84 1011.05 1011.22 1011.18 1011.38 1011.63 1011.95 1012.11 1012.22 1012.34 1012.32 1012.36 1012.40 1012.53 1012.57 1012.60 1012.71 1012.80 1012.80 1012.70 1012.76 1012.96 1013.19 1013.45 1013.83
1011.44 1011.11 1012.36 1012.06 1012.28 1011.24 1010.90 1011.02 1010.95 1011.01 1010.04 1010.70 1009.92 1010.59 1010.25 1010.00 1010.12 1010.16 1010.32 1010.77 1010.99 1010.99 1011.08 1011.18 1011.41 1011.79 1011.91 1012.04 1012.18 1012.18 1012.21 1012.28 1012.36 1012.49 1012.57 1012.64 1012.79 1012.83 1012.79 1012.82 1012.99 1013.32 1013.67 1014.02
1010.91 1010.76 1011.25 1011.76 1011.89 1010.77 1010.34 1010.63 1010.69 1010.52 1010.30 1010.19 1009.51 1009.49 1009.16 1009.06 1009.60 1009.95 1010.07 1010.46 1010.73 1010.80 1010.83 1010.95 1011.19 1011.30 1011.57 1011.72 1011.91 1012.06 1012.19 1012.20 1012.45 1012.57 1012.76 1012.94 1013.07 1013.24 1013.42 1013.62 1013.83 1013.78 1014.16 1014.34
1010.74 1011.00 1010.73 1011.26 1011.63 1010.92 1010.19 1008.87 1008.71 1008.60 1008.75 1008.05 1008.32 1007.26 1008.61 1008.79 1009.19 1009.30 1009.72 1009.67 1010.05 1010.45 1010.72 1010.91 1011.14 1011.37 1011.83 1011.95 1011.88 1011.98 1012.06 1012.27 1012.53 1012.81 1013.08 1013.21 1013.37 1013.54 1013.88 1014.07 1014.00 1014.29 1014.76 1015.15
1011.44 1009.75 1011.01 1010.91 1011.16 1009.75 1007.27 1007.18 1007.16 1007.33 1006.87 1006.67 1006.83 1007.03 1007.47 1007.96 1008.15 1008.44 1008.64 1009.12 1009.89 1010.45 1010.98 1011.47 1011.86 1012.07 1012.21 1012.18 1012.05 1012.05 1012.26 1012.53 1012.82 1013.10 1013.31 1013.44 1013.73 1014.01 1014.31 1014.46 1014.69 1015.00 1015.25 1015.52
1009.01 1008.56 1009.33 1010.00 1009.47 1009.15 1007.58 1006.47 1006.38 1006.80 1005.59 1005.84 1006.32 1007.07 1007.58 1007.93 1008.41 1008.72 1008.95 1009.68 1010.78 1011.49 1011.93 1012.19 1012.39 1012.52 1012.72 1012.83 1012.89 1012.87 1012.97 1013.03 1013.19 1013.39 1013.60 1013.80 1014.14 1014.51 1014.79 1014.95 1015.11 1015.29 1015.49 1015.72
1006.92 1007.66 1008.00 1009.25 1009.07 1008.02 1005.52 1005.38 1005.84 1007.55 1006.23 1004.18 1004.60 1005.94 1007.27 1008.20 1008.82 1008.79 1009.92 1010.79 1011.55 1012.28 1012.66 1012.98 1013.16 1013.49 1013.65 1013.75 1013.68 1013.83 1014.05 1013.97 1014.04 1013.97 1013.84 1013.95 1014.23 1014.68 1014.84 1015.08 1015.39 1015.58 1015.65 1015.84
1006.43 1007.56 1007.61 1008.16 1008.24 1007.11 1005.39 1005.06 1005.97 1007.62 1003.84 1003.32 1003.73 1004.81 1006.67 1007.68 1007.01 1009.24 1010.53 1011.59 1012.24 1012.80 1013.20 1013.54 1013.99 1014.51 1014.77 1014.60 1014.44 1014.73 1014.80 1014.87 1014.87 1014.80 1014.62 1014.69 1014.69 1014.86 1014.81 1015.03 1015.44 1015.74 1016.05 1016.19
1005.93 1007.02 1007.52 1008.02 1008.17 1006.56 1004.69 1005.29 1004.48 1003.76 1003.92 1004.03 1004.36 1004.85 1006.12 1007.55 1008.60 1009.97 1011.26 1012.33 1013.05 1013.60 1014.13 1014.40 1014.95 1015.44 1015.59 1015.47 1015.36 1015.64 1015.72 1015.57 1015.39 1015.28 1015.32 1015.44 1015.22 1015.08 1015.19 1015.25 1015.46 1015.75 1016.01 1016.34
1006.03 1005.41 1006.67 1007.24 1006.34 1005.29 1005.33 1004.55 1004.58 1004.59 1005.14 1005.35 1005.31 1005.40 1006.23 1008.12 1009.59 1011.06 1012.12 1013.09 1014.10 1014.79 1015.40 1015.80 1016.18 1016.64 1016.87 1016.90 1016.70 1016.59 1016.68 1016.29 1016.19 1016.23 1016.23 1016.43 1016.35 1016.02 1015.86 1015.86 1016.18 1016.35 1016.27 1016.41
1006.92 1006.56 1007.10 1007.74 1007.44 1006.84 1006.51 1006.13 1005.55 1005.85 1006.27 1006.71 1006.55 1006.81 1007.46 1008.93 1010.53 1011.76 1013.01 1014.39 1015.33 1016.14 1016.72 1017.12 1017.48 1017.82 1018.01 1017.99 1017.85 1017.61 1017.28 1016.84 1016.75 1016.90 1017.02 1017.21 1017.32 1017.11 1016.73 1016.38 1016.41 1016.54 1016.59 1016.64
1010.49 1009.66 1010.00 1010.22 1009.47 1008.60 1008.20 1008.11 1007.31 1007.26 1007.78 1008.15 1008.19 1008.77 1009.65 1010.55 1012.25 1013.07 1014.24 1015.40 1016.43 1017.10 1017.54 1017.91 1018.38 1018.87 1019.17 1019.11 1018.82 1018.52 1017.99 1017.30 1017.21 1017.16 1017.35 1017.32 1017.22 1017.29 1017.33 1017.23 1016.82 1016.70 1016.85 1016.89
1014.90 1015.21 1014.39 1013.84 1013.77 1013.17 1011.35 1010.54 1009.31 1009.09 1009.64 1010.05 1009.99 1010.89 1011.37 1011.78 1012.95 1014.11 1015.51 1016.73 1017.49 1018.26 1018.88 1019.48 1019.80 1019.93 1020.15 1020.24 1020.11 1019.54 1018.76 1018.09 1017.83 1017.93 1017.88 1017.84 1017.87 1018.00 1017.74 1017.63 1017.36 1016.91 1016.91 1016.73
Wind_Speed
5 6 16 15 8 3 3 6 9 4 9 9 10 9 11 11 5 8 9 8 8 13 15 17 17 18 15 12 15 16 13 11 9 7 6 5 9 8 7 7 10 10 8 8
5 14 14 8 8 8 9 5 6 6 2 7 6 15 12 8 9 10 10 9 10 7 11 15 14 17 17 14 16 16 17 15 13 10 7 3 5 5 8 5 6 9 10 10
16 9 11 12 9 13 12 9 5 5 1 1 2 8 7 6 8 9 9 11 11 13 12 15 16 18 17 16 18 18 19 17 16 14 7 4 2 2 3 4 7 8 11 11
16 12 20 15 18 11 15 9 9 4 4 5 4 8 10 10 18 16 15 13 17 14 11 11 19 18 19 18 18 18 18 17 16 17 13 16 11 11 11 10 8 7 11 12
6 16 19 21 24 15 6 9 10 4 2 2 4 5 6 8 9 9 15 21 19 15 14 15 17 20 21 16 17 17 16 17 17 17 17 13 15 10 6 6 8 10 9 12
15 4 16 18 15 13 7 6 5 4 2 9 8 8 6 8 8 11 15 13 15 16 16 15 15 17 17 16 16 15 17 17 18 18 19 18 18 13 10 10 10 10 11 10
18 21 3 9 17 5 7 10 4 7 6 11 13 9 16 7 9 12 11 9 8 8 11 14 13 12 15 17 17 15 17 19 17 18 19 19 18 16 15 14 12 12 10 9
11 12 22 13 19 15 21 17 6 10 8 8 3 11 7 19 23 12 10 9 8 8 6 9 13 14 16 18 18 18 17 18 17 17 20 17 18 12 12 13 11 11 12 12
6 6 16 10 6 15 10 15 11 5 3 3 6 7 8 7 13 7 9 7 8 7 7 8 8 8 11 14 16 18 17 17 16 17 15 17 16 17 15 17 12 12 13 11
8 4 6 7 9 2 13 18 9 3 3 5 6 5 6 6 15 7 5 9 8 5 4 3 2 3 5 8 10 13 17 18 18 18 16 16 17 17 17 13 15 16 13 12
12 7 3 1 9 16 6 15 5 7 5 5 2 8 8 12 8 10 7 5 5 4 3 4 4 3 1 3 3 7 9 13 12 12 14 14 13 15 14 14 12 13 8 11
15 5 6 15 1 5 9 14 17 10 10 4 3 7 6 10 9 9 8 7 5 5 2 2 4 4 4 3 2 4 4 6 6 6 9 10 11 11 13 14 16 12 13 13
13 7 10 5 4 3 17 6 19 3 5 9 6 7 1 3 6 6 10 8 7 5 4 2 1 2 2 3 4 5 5 7 7 6 7 7 10 12 16 17 17 13 13 13
13 6 4 10 16 7 25 25 27 23 10 13 18 10 6 8 8 7 8 7 8 7 6 5 4 3 3 4 4 5 6 6 6 6 6 7 6 7 7 7 7 7 7 9
14 9 14 16 18 20 15 22 19 21 25 16 20 14 10 10 10 10 9 7 6 6 7 7 5 5 5 5 6 5 6 6 5 6 5 6 4 4 3 5 5 4 4 5
12 6 19 19 12 19 19 22 20 19 22 16 19 16 8 7 3 6 9 9 7 6 5 7 6 5 5 5 6 6 7 6 4 4 5 2 1 1 1 1 1 3 3 5
14 10 12 12 15 16 15 27 28 26 21 28 23 25 8 8 12 10 9 8 5 5 5 4 2 1 3 4 6 6 5 3 4 3 2 2 2 2 3 2 4 3 2 3
20 18 5 5 10 13 7 22 25 30 31 29 25 10 18 9 8 8 5 3 3 4 4 5 4 4 4 5 5 3 4 2 3 3 2 3 2 2 2 2 2 2 2 0
24 8 6 7 13 3 4 11 29 23 31 26 28 16 7 6 5 4 3 3 5 5 4 3 3 3 5 6 6 4 5 4 4 2 2 3 3 4 4 3 3 2 2 1
17 14 7 4 7 12 4 8 16 4 19 25 26 19 16 6 6 8 7 6 7 6 4 4 6 6 6 6 5 5 5 4 3 2 2 2 3 3 3 3 2 1 1 2
7 3 13 9 3 8 7 7 22 14 14 8 22 20 16 19 16 8 9 6 6 5 6 6 7 6 5 5 5 6 5 5 5 4 3 2 2 2 2 3 2 2 2 3
7 9 4 4 2 12 6 17 24 3 2 2 4 9 12 10 12 12 9 8 7 7 6 6 6 6 7 7 5 5 6 5 4 3 4 3 1 1 2 5 3 3 4 3
4 6 9 10 7 1 4 4 3 3 3 1 4 6 16 15 7 9 9 8 7 7 6 5 6 7 8 8 7 6 7 6 5 5 5 4 3 3 2 3 3 2 2 3
2 4 4 5 4 3 3 2 5 4 4 4 5 8 8 11 10 11 10 8 8 6 6 4 6 8 8 7 7 7 6 5 6 6 5 4 4 4 4 3 2 1 1 1
5 8 2 1 5 3 5 7 4 8 8 8 10 7 10 15 10 11 10 9 8 7 6 6 6 6 7 6 7 7 7 3 4 4 3 3 3 3 2 2 2 2 1 1
8 7 4 3 7 7 5 12 7 6 6 6 9 10 9 9 12 12 11 8 7 7 6 7 7 7 6 5 6 8 9 6 5 5 4 3 3 3 3 3 3 7 3 3
Wind_Direction
196 177 201 197 195 276 193 185 215 227 235 182 214 229 231 249 190 215 229 230 202 200 208 200 196 194 199 180 182 182 181 199 183 186 188 193 195 193 197 196 191 189 193 192
161 221 203 194 201 199 259 245 236 241 317 167 218 243 238 224 236 221 217 228 235 223 194 205 194 190 193 188 190 185 191 192 202 198 193 184 193 207 205 198 199 194 190 192
203 204 188 201 198 205 224 227 222 194 219 8 32 274 256 242 237 236 234 225 227 217 216 202 197 193 194 190 189 189 193 193 198 207 195 186 164 138 187 201 208 201 191 194
222 201 183 198 213 192 220 177 234 148 146 231 161 272 236 220 238 236 243 234 232 221 213 201 198 196 197 198 193 192 191 193 193 195 204 208 206 203 206 205 207 197 190 192
216 188 185 198 205 197 215 170 193 174 125 50 204 263 273 215 231 240 236 237 234 215 213 210 199 200 198 189 195 196 189 193 196 193 199 202 211 213 199 197 193 202 205 200
228 318 190 199 193 193 149 97 58 40 98 234 190 207 204 214 210 244 242 241 228 223 218 213 205 198 196 195 193 192 192 198 195 198 199 202 208 203 198 196 198 201 204 203
218 218 301 172 182 147 155 150 189 216 203 252 174 206 249 241 243 233 239 239 253 245 229 219 205 192 193 191 195 195 198 202 198 201 205 207 208 208 208 205 204 196 203 207
207 206 195 224 190 178 191 177 162 200 194 214 110 231 238 216 232 243 235 239 261 268 236 225 221 199 190 191 195 196 199 211 203 206 211 208 211 211 215 214 211 210 209 209
200 234 188 213 194 164 181 201 173 96 40 90 215 285 299 245 247 233 250 259 263 262 261 252 227 208 190 190 193 194 199 209 207 212 212 211 212 214 213 216 210 212 213 213
186 255 226 201 165 175 195 182 178 189 174 240 262 251 229 224 243 242 271 245 264 284 322 348 300 220 196 195 194 195 202 205 206 207 209 211 211 213 220 218 217 218 215 205
212 200 179 275 218 170 161 187 203 170 172 185 218 256 221 207 198 165 169 135 114 74 26 340 344 3 296 314 224 209 205 208 209 209 212 215 212 214 213 218 218 217 201 199
213 188 194 214 291 236 209 189 184 183 208 209 153 273 309 166 166 153 154 140 127 118 99 3 360 351 335 330 268 240 231 231 229 214 213 211 211 206 206 212 218 207 203 196
153 236 173 196 271 1 207 206 199 108 108 202 160 260 341 51 136 176 153 165 166 162 164 209 290 322 308 281 262 256 248 245 241 222 219 225 219 208 210 213 215 211 205 204
175 201 149 221 214 178 192 195 196 199 185 205 220 210 219 224 205 186 196 184 182 186 196 191 197 217 250 255 255 263 266 249 246 237 239 241 248 245 238 227 204 195 187 180
193 207 207 223 277 188 197 199 196 204 215 193 213 211 210 215 210 201 191 202 188 196 201 205 197 200 216 233 254 257 257 251 235 230 230 239 264 277 238 197 185 168 172 190
190 249 194 210 220 196 196 206 209 221 231 252 247 239 209 236 171 171 190 189 212 224 208 193 202 202 238 247 249 239 244 243 225 221 230 260 263 159 190 84 127 123 170 180
205 179 177 202 198 191 193 196 193 211 221 219 223 222 180 199 187 187 199 204 211 184 172 197 266 12 15 314 287 260 263 212 187 169 140 128 124 100 51 31 55 47 7 20
251 175 154 171 143 205 228 190 207 206 213 220 232 216 203 189 179 178 180 153 254 305 355 66 44 11 12 354 360 351 17 84 129 115 132 106 112 117 105 84 82 88 86 225
199 167 134 170 191 274 242 198 194 190 224 228 235 213 194 147 110 253 115 95 109 108 83 64 37 63 53 24 4 66 73 92 108 122 170 179 163 153 153 163 195 205 203 187
173 199 165 156 164 201 215 181 195 141 269 220 226 217 199 151 219 204 134 123 97 84 73 63 76 54 43 6 18 67 44 42 29 312 254 209 169 161 178 188 170 139 129 169
146 137 193 168 172 267 233 145 134 154 252 241 210 208 189 204 226 133 123 97 105 103 79 81 71 67 29 6 59 63 58 38 343 359 34 57 122 178 155 144 135 144 113 117
155 149 172 104 117 250 155 149 168 231 56 329 159 165 172 131 120 126 122 121 111 99 73 72 82 58 25 15 61 69 48 344 356 44 66 50 48 129 143 152 130 124 141 140
192 175 171 187 197 298 172 211 142 88 110 330 133 140 136 132 133 141 128 106 88 77 60 48 75 67 35 20 21 45 358 1 20 43 37 41 21 40 70 97 112 100 120 126
305 33 111 94 304 23 47 10 75 73 87 82 84 97 114 123 128 109 104 97 86 69 66 54 68 61 49 25 31 26 0 12 48 52 37 24 37 15 16 37 50 71 112 125
351 343 54 47 3 330 52 4 49 78 67 73 63 67 107 115 104 115 104 94 87 78 62 59 67 66 46 15 18 359 353 5 73 74 53 49 76 76 54 46 46 75 220 156
357 9 12 56 9 304 4 335 348 70 84 54 83 73 56 88 102 103 90 81 81 73 56 62 52 56 33 19 17 2 357 10 46 53 35 31 27 14 48 57 13 23 39 235